Weather Roundup
Issued by NWS

Home | Current Version | Previous Version | Graphics & Text | Print | Product List | Glossary Off
Versions: 1 2 3 4 5 6 7 8 9 10 11 12 13 14 15 16 17 18 19 20 21 22 23 24 25 26 27 28 29 30 31 32 33 34 35 36 37 38 39 40 41 42 43 44 45 46 47 48 49 50

000
NZUS93 KARX 172059
HRRWXR

CURRENT HOURLY OBSERVATIONS ACROSS
MUCH OF THE UPPER MISSISSIPPI VALLEY
NATIONAL WEATHER SERVICE LA CROSSE WI
400 PM CDT TUE OCT 17 2017


...SOUTHEAST MINNESOTA...


CITY           SKY/WX    TMP DP  RH WIND       PRES   REMARKS
ROCHESTER      SUNNY     72  45  37 S12       29.99F
ROCHESTER/MAYO FAIR      74  40  29 SW9G16    29.98S
WINONA         SUNNY     73  45  35 S3        29.97F
AUSTIN           N/A     72  43  35 S8        29.98F
ALBERT LEA     SUNNY     75  43  31 S5        29.98S
DODGE CENTER   SUNNY     73  37  27 S12       29.98S
PRESTON        SUNNY     70  42  36 S10G16    30.01S
OWATONNA       SUNNY     75  41  29 SW8       29.96F
FARIBAULT      SUNNY     75  41  29 SW9G18    29.95F
$$

...ELSEWHERE IN MINNESOTA...


CITY           SKY/WX    TMP DP  RH WIND       PRES   REMARKS
MINNEAPOLIS    MOSUNNY   73  43  33 S7        29.93F
INTNL FALLS    SUNNY     71  35  26 S9G18     29.79F
DULUTH         MOSUNNY   67  37  33 SW12      29.89F
RED WING       NOT AVBL
REDWOOD FALLS  SUNNY     76  36  23 SW12G18   29.92F
MANKATO        SUNNY     76  41  28 S9        29.94F
WORTHINGTON    SUNNY     75  36  24 SW7       29.97F
FAIRMONT       NOT AVBL
$$

...SOUTHWEST WISCONSIN...


CITY           SKY/WX    TMP DP  RH WIND       PRES   REMARKS
LA CROSSE      SUNNY     72  46  39 S12       29.99F
PRAIRIE DU CHI SUNNY     73  40  30 S9G16     30.02F
BOSCOBEL       SUNNY     75  43  31 SW13G20   30.03F
LONE ROCK      SUNNY     72  46  39 SW10      30.03F
PLATTEVILLE    SUNNY     71  44  38 SW15      30.07F
FORT MC COY    SUNNY     69  45  41 SW5       30.01F
MAUSTON-NEW LI CLEAR     70  46  42 S9        30.01S
VIROQUA        FAIR      68  46  45 SW10      30.03F
WIS DELLS      SUNNY     68  44  40 SW10G16   30.03F
$$

...ELSEWHERE IN WISCONSIN...


CITY           SKY/WX    TMP DP  RH WIND       PRES   REMARKS
MILWAUKEE      MOSUNNY   73  43  33 SW20      30.06F
MADISON        MOSUNNY   70  44  39 SW8G20    30.04F
GREEN BAY      CLOUDY    67  50  54 S10       30.00F
EAU CLAIRE     NOT AVBL
BLACK RVR FLS  FAIR      71  40  32 SW6       29.98F
MEDFORD        CLOUDY    67  44  43 S7        29.98S
WAUSAU         CLOUDY    68  44  42 S10       29.97F
WIS RAPIDS     SUNNY     69  47  45 SW10      30.01F
MARSHFIELD     SUNNY     69  44  40 SW8       29.98F
RICE LAKE      CLOUDY    72  40  31 SW7       29.96F
$$

...NORTHEAST IOWA...


CITY           SKY/WX    TMP DP  RH WIND       PRES   REMARKS
WATERLOO       SUNNY     73  40  30 S17       30.02F
DUBUQUE        SUNNY     70  44  39 SW18      30.06F
DECORAH        SUNNY     72  45  37 SW13G20   30.01S
MASON CITY     SUNNY     71  44  37 SW13      30.01F
CHARLES CITY   SUNNY     72  41  33 SW12G18   30.02S
OELWEIN        SUNNY     73  43  33 S20G25    30.04S
$$

...ELSEWHERE IN IOWA...


CITY           SKY/WX    TMP DP  RH WIND       PRES   REMARKS
DES MOINES     SUNNY     72  43  35 S17       30.04S
IOWA CITY      SUNNY     73  41  31 SW13      30.09F
FORT DODGE     SUNNY     72  47  40 SW9       30.01F
MARSHALLTOWN   SUNNY     72  44  36 SW13G22   30.03F
CEDAR RAPIDS   SUNNY     72  42  34 SW16G23   30.06F
$$

...NORTHERN ILLINOIS...


CITY           SKY/WX    TMP DP  RH WIND       PRES   REMARKS
CHICAGO-OHARE  MOSUNNY   70  38  31 SW16      30.12S
CHICAGO-MIDWAY MOSUNNY   70  41  34 SW16G24   30.13F
MOLINE         SUNNY     71  40  32 SW14      30.10F
ROCKFORD       MOSUNNY   70  39  32 SW14G22   30.11F
PEORIA         SUNNY     69  40  34 S16G22    30.15F
$$

NOTE: "FAIR" INDICATES FEW OR NO CLOUDS BELOW 12,000 FEET WITH NO
SIGNIFICANT WEATHER AND/OR OBSTRUCTIONS TO VISIBILITY. WIND
SPEEDS ARE IN MILES-PER-HOUR.




USA.gov is the U.S. government's official web portal to all federal, state and local government web resources and services.